Tracking 25701 objects as of 3-Jul-2022
HD Live streaming from Space Station
objects crossing your sky now

FENGYUN 1C DEB

Track FENGYUN 1C DEB now!
10-day predictions


NORAD ID: 37449
Int'l Code: 1999-025EHT
Perigee: 510.5 km
Apogee: 697.1 km
Inclination: 98.9 °
Period: 96.6 minutes
Semi major axis: 6974 km
RCS: 0.0081 m2 (small)
Launch date: May 10, 1999
Source: People's Republic of China (PRC)
Launch site: Taiyaun Space Center, China (TSC)

Note: This is SATELLITE DEBRIS
aabbcc
Your satellite tracking list
Your tracking list is empty




NASA's NSSDC Master Catalog

Two Line Element Set (TLE):
1 37449U 99025EHT 22183.86891386  .00004087  00000-0  36104-3 0  9993
2 37449  98.8696  38.8661 0133755 348.2778  11.5331 14.90403588689436
Source of the keplerian elements: AFSPC